Weather History for Toledo, OH

Change the Weather History Date:

Wednesday, June 13, 2012

  Actual Average Record
Temperature  
Mean Temperature 62 °F 69 °F  
Max Temperature 73 °F 80 °F 95 °F (1956)
Min Temperature 51 °F 58 °F 43 °F (1974)
Degree Days  
Heating Degree Days 3 1  
Month to date heating degree days 26 26  
Since 1 June heating degree days 26 26  
Since 1 July heating degree days 5043 6136  
Cooling Degree Days 0 5  
Month to date cooling degree days 48 52  
Year to date cooling degree days 168 105  
Since 1 June cooling degree days 48 52  
Growing Degree Days 12 (Base 50)    
Moisture  
Dew Point 44 °F    
Average Humidity 57    
Maximum Humidity 77    
Minimum Humidity 37    
Precipitation  
Precipitation 0.00 in 0.13 in 2.57 in (1981)
Month to date precipitation 0.56 1.62  
Year to date precipitation 11.84 14.99  
Snow  
Snow 0.00 in 0.00 in - ()
Month to date snowfall 0.0 0.0  
Since 1 June snowfall 0.0 0.0  
Since 1 July snowfall 20.8 37.6  
Snow Depth 0.00 in    
Sea Level Pressure  
Sea Level Pressure 30.16 in    
Wind  
Wind Speed 5 mph (NE)    
Max Wind Speed 15 mph    
Max Gust Speed 17 mph    
Visibility 10 miles    
Events      
T = Trace of Precipitation, MM = Missing Value Source: NWS Daily Summary

Daily Weather History Graph

Daily Weather History Graph

Search for Another Location

Airport:

Trip Planner

Search our weather history database for the weather conditions in past years. The results will help you decide how hot, cold, wet, or windy it might be!

Date:

Astronomy

Jun. 13, 2012 Rise Set
Actual Time 6:00 AM EDT 9:10 PM EDT
Civil Twilight 5:26 AM EDT 9:44 PM EDT
Nautical Twilight 4:42 AM EDT 10:28 PM EDT
Astronomical Twilight 3:50 AM EDT 11:20 PM EDT
Moon 2:16 AM EDT (6/13) 3:53 PM EDT (6/13)
Length of Visible Light 16h 18m
Length of Day
15h 10m
Waning Crescent, 29% of the Moon is Illuminated
Jun 13
Waning Crescent
Jun 19
New
Jun 26
First Quarter
Jul 3
Full
Jul 10
Last Quarter

Hourly Weather History & Observations

Time (EDT) Temp. Dew Point Humidity Pressure Visibility Wind Dir Wind Speed Gust Speed Precip Events Conditions
12:52 AM 61.0 °F 46.9 °F 60% 30.09 in 10.0 mi North 8.1 mph - N/A   Clear
1:52 AM 59.0 °F 46.9 °F 64% 30.11 in 10.0 mi North 4.6 mph - N/A   Clear
2:52 AM 57.0 °F 48.0 °F 72% 30.12 in 10.0 mi North 5.8 mph - N/A   Clear
3:52 AM 55.0 °F 48.9 °F 80% 30.13 in 10.0 mi North 4.6 mph - N/A   Clear
4:52 AM 54.0 °F 46.0 °F 75% 30.15 in 10.0 mi North 5.8 mph - N/A   Clear
5:52 AM 53.6 °F 44.6 °F 72% 30.18 in 10.0 mi North 5.8 mph - N/A   Clear
6:52 AM 52.0 °F 45.0 °F 77% 30.18 in 10.0 mi North 3.5 mph - N/A   Clear
7:52 AM 55.0 °F 44.1 °F 67% 30.19 in 10.0 mi NNE 10.4 mph - N/A   Clear
8:52 AM 57.9 °F 39.0 °F 49% 30.20 in 10.0 mi NE 5.8 mph - N/A   Clear
9:52 AM 60.1 °F 41.0 °F 49% 30.20 in 10.0 mi Variable 6.9 mph - N/A   Clear
10:52 AM 62.1 °F 39.9 °F 44% 30.19 in 10.0 mi ENE 8.1 mph - N/A   Clear
11:52 AM 63.0 °F 39.9 °F 43% 30.20 in 10.0 mi ENE 5.8 mph - N/A   Clear
12:52 PM 64.9 °F 39.9 °F 40% 30.20 in 10.0 mi Variable 3.5 mph - N/A   Clear
1:52 PM 68.0 °F 41.0 °F 37% 30.19 in 10.0 mi East 5.8 mph - N/A   Clear
2:52 PM 68.0 °F 42.1 °F 39% 30.19 in 10.0 mi Calm Calm - N/A   Clear
3:52 PM 69.1 °F 42.1 °F 38% 30.17 in 10.0 mi Calm Calm - N/A   Clear
4:52 PM 71.1 °F 44.1 °F 38% 30.16 in 10.0 mi East 6.9 mph - N/A   Clear
5:52 PM 70.0 °F 44.1 °F 39% 30.16 in 10.0 mi East 6.9 mph - N/A   Clear
6:52 PM 69.1 °F 44.1 °F 40% 30.16 in 10.0 mi ESE 6.9 mph - N/A   Clear
7:52 PM 66.9 °F 44.1 °F 44% 30.16 in 10.0 mi East 9.2 mph - N/A   Clear
8:52 PM 63.0 °F 44.1 °F 50% 30.17 in 10.0 mi SE 3.5 mph - N/A   Clear
9:52 PM 60.1 °F 44.1 °F 55% 30.16 in 10.0 mi Calm Calm - N/A   Clear
10:52 PM 55.0 °F 45.0 °F 69% 30.16 in 10.0 mi Calm Calm - N/A   Clear
11:52 PM 53.1 °F 46.0 °F 77% 30.15 in 10.0 mi Calm Calm - N/A   Clear